Location: Newark
(0.5300°S, 127.4800°E)
Time: 02:03:12
(UTC+00:00)

Vanguard 3 - Pass Details

Date: 24 September 2019
Orbit: 508 x 3262 km, 33.3° (Epoch: 21 October)

Event Time Altitude Azimuth Distance (km) Brightness Sun altitude
Rises 02:21:33 0° 318° (NW) 6,866 11.8 74.8°
Reaches altitude 10° 02:28:08 10° 332° (NNW) 6,089 11.7 76.4°
Maximum altitude 02:41:43 22° 16° (NNE) 5,178 11.6 79.8°
Drops below altitude 10° 02:54:13 10° 60° (ENE) 5,637 11.7 83.0°
Sets 02:59:48 0° 75° (ENE) 6,263 11.8 84.4°
